TimeEDT,TemperatureF,Dew PointF,Humidity,Sea Level PressureIn,VisibilityMPH,Wind Direction,Wind SpeedMPH,Gust SpeedMPH,PrecipitationIn,Events,Conditions,WindDirDegrees,DateUTC
12:14 AM,35.4,21.9,58,30.04,10.0,North,23.0,33.4,N/A,,Clear,10,2012-10-30 04:14:00
12:33 AM,35.1,22.8,61,30.03,10.0,North,20.7,32.2,N/A,,Clear,360,2012-10-30 04:33:00
12:54 AM,35.1,23.7,63,30.02,10.0,North,20.7,33.4,N/A,,Clear,360,2012-10-30 04:54:00
1:14 AM,35.4,24.1,63,30.00,10.0,North,20.7,36.8,N/A,,Clear,360,2012-10-30 05:14:00
1:33 AM,35.6,23.9,62,30.00,10.0,North,21.9,34.5,N/A,,Scattered Clouds,10,2012-10-30 05:33:00
1:54 AM,35.8,24.3,63,29.99,10.0,North,21.9,34.5,N/A,,Overcast,360,2012-10-30 05:54:00
2:33 AM,36.0,23.0,59,29.95,10.0,North,23.0,36.8,N/A,,Mostly Cloudy,360,2012-10-30 06:33:00
2:54 AM,36.1,22.3,57,29.94,10.0,North,24.2,42.6,N/A,,Overcast,360,2012-10-30 06:54:00
3:13 AM,36.0,21.7,56,29.93,10.0,North,25.3,38.0,N/A,,Overcast,360,2012-10-30 07:13:00
3:33 AM,35.8,21.0,55,29.91,10.0,North,26.5,35.7,N/A,,Overcast,10,2012-10-30 07:33:00
3:54 AM,35.8,20.3,53,29.91,10.0,North,19.6,36.8,N/A,,Overcast,360,2012-10-30 07:54:00
4:13 AM,35.8,20.7,54,29.90,10.0,North,26.5,36.8,N/A,,Overcast,360,2012-10-30 08:13:00
4:33 AM,35.6,20.7,55,29.89,10.0,North,21.9,35.7,N/A,,Overcast,10,2012-10-30 08:33:00
4:54 AM,35.6,20.3,54,29.88,10.0,North,23.0,36.8,N/A,,Overcast,360,2012-10-30 08:54:00
5:13 AM,35.6,21.2,56,29.88,10.0,North,19.6,33.4,N/A,,Overcast,360,2012-10-30 09:13:00
5:33 AM,35.6,21.7,57,29.87,10.0,North,20.7,39.1,N/A,,Overcast,360,2012-10-30 09:33:00
5:54 AM,35.1,23.2,62,29.87,10.0,North,20.7,35.7,N/A,,Overcast,360,2012-10-30 09:54:00
6:13 AM,35.2,23.2,62,29.87,10.0,North,25.3,35.7,N/A,,Overcast,350,2012-10-30 10:13:00
6:33 AM,34.9,24.1,65,29.86,10.0,North,23.0,36.8,N/A,Snow,Light Snow,360,2012-10-30 10:33:00
6:53 AM,35.1,25.5,68,29.86,10.0,North,19.6,36.8,N/A,Snow,Light Snow,350,2012-10-30 10:53:00
7:13 AM,34.9,27.1,73,29.85,10.0,North,24.2,39.1,N/A,Rain,Light Rain,360,2012-10-30 11:13:00
7:34 AM,35.1,27.0,72,29.85,10.0,North,21.9,35.7,N/A,Snow,Light Snow,360,2012-10-30 11:34:00
7:53 AM,34.7,27.9,76,29.85,7.0,North,26.5,38.0,N/A,Snow,Light Snow,360,2012-10-30 11:53:00
8:34 AM,34.9,30.0,82,29.84,10.0,North,19.6,39.1,N/A,,Overcast,350,2012-10-30 12:34:00
8:53 AM,34.7,30.9,86,29.83,10.0,North,21.9,34.5,N/A,Snow,Light Snow,360,2012-10-30 12:53:00
9:13 AM,34.7,31.6,89,29.82,10.0,North,27.6,38.0,N/A,Rain,Light Rain,360,2012-10-30 13:13:00
9:34 AM,34.5,32.0,90,29.80,10.0,North,24.2,39.1,N/A,,Overcast,350,2012-10-30 13:34:00
9:53 AM,34.7,32.0,90,29.80,10.0,North,27.6,40.3,N/A,Rain,Light Rain,360,2012-10-30 13:53:00
10:13 AM,35.1,32.0,89,29.79,10.0,North,25.3,39.1,N/A,,Overcast,360,2012-10-30 14:13:00
10:34 AM,35.6,32.0,87,29.78,10.0,North,27.6,40.3,N/A,Rain,Light Rain,360,2012-10-30 14:34:00
10:53 AM,35.6,31.6,85,29.77,10.0,North,21.9,38.0,N/A,,Overcast,360,2012-10-30 14:53:00
11:13 AM,35.8,31.8,86,29.76,10.0,North,28.8,38.0,N/A,,Overcast,360,2012-10-30 15:13:00
11:34 AM,36.1,31.5,83,29.75,10.0,North,24.2,39.1,N/A,,Overcast,360,2012-10-30 15:34:00
11:53 AM,36.5,31.6,83,29.75,10.0,North,26.5,36.8,N/A,,Overcast,360,2012-10-30 15:53:00
12:13 PM,36.5,32.0,84,29.74,10.0,North,26.5,46.0,N/A,Rain,Light Rain,360,2012-10-30 16:13:00
12:34 PM,36.1,32.4,86,29.74,5.0,North,24.2,36.8,N/A,,Overcast,360,2012-10-30 16:34:00
12:53 PM,36.0,32.9,89,29.74,5.0,North,23.0,39.1,N/A,,Overcast,360,2012-10-30 16:53:00
1:13 PM,36.0,32.9,89,29.73,4.0,North,23.0,36.8,N/A,,Overcast,360,2012-10-30 17:13:00
1:34 PM,35.8,33.1,90,29.72,2.5,North,18.4,38.0,N/A,,Overcast,360,2012-10-30 17:34:00
1:53 PM,36.0,33.4,91,29.72,3.0,North,28.8,39.1,N/A,Snow,Light Snow,10,2012-10-30 17:53:00
2:14 PM,36.0,33.8,92,29.72,3.0,North,20.7,32.2,N/A,,Overcast,360,2012-10-30 18:14:00
2:34 PM,35.6,33.3,91,29.71,3.0,North,24.2,39.1,N/A,,Overcast,360,2012-10-30 18:34:00
2:53 PM,35.4,32.9,91,29.71,2.0,North,19.6,38.0,N/A,,Overcast,360,2012-10-30 18:53:00
3:14 PM,35.6,33.1,91,29.70,10.0,North,21.9,33.4,N/A,,Overcast,360,2012-10-30 19:14:00
3:34 PM,35.2,32.9,91,29.70,10.0,North,21.9,33.4,N/A,,Overcast,360,2012-10-30 19:34:00
3:53 PM,34.9,32.7,92,29.70,5.0,North,19.6,31.1,N/A,Snow,Light Snow,360,2012-10-30 19:53:00
4:14 PM,34.9,32.5,91,29.70,10.0,North,21.9,29.9,N/A,Rain,Light Rain,360,2012-10-30 20:14:00
4:33 PM,34.7,32.5,92,29.70,7.0,North,18.4,28.8,N/A,Snow,Light Snow,360,2012-10-30 20:33:00
5:14 PM,34.0,32.0,92,29.71,3.0,North,20.7,34.5,N/A,Snow,Light Snow,360,2012-10-30 21:14:00
5:33 PM,34.0,32.0,92,29.71,4.0,North,23.0,33.4,N/A,Snow,Light Snow,360,2012-10-30 21:33:00
5:53 PM,33.4,32.0,94,29.71,2.5,North,21.9,29.9,N/A,Snow,Light Snow,360,2012-10-30 21:53:00
7:14 PM,33.3,32.0,95,29.72,10.0,North,23.0,32.2,N/A,Snow,Light Snow,360,2012-10-30 23:14:00
7:33 PM,33.3,32.0,95,29.72,10.0,North,21.9,34.5,N/A,Snow,Light Snow,360,2012-10-30 23:33:00
8:14 PM,33.3,31.8,94,29.70,7.0,North,15.0,34.5,N/A,Snow,Light Snow,360,2012-10-31 00:14:00
8:33 PM,33.4,32.0,94,29.70,7.0,North,21.9,36.8,N/A,Snow,Light Snow,360,2012-10-31 00:33:00
8:53 PM,33.6,32.0,94,29.70,7.0,North,21.9,33.4,N/A,Snow,Light Snow,360,2012-10-31 00:53:00
9:14 PM,33.4,32.0,94,29.70,7.0,North,19.6,32.2,N/A,Snow,Light Snow,360,2012-10-31 01:14:00
9:33 PM,33.6,32.0,94,29.69,10.0,North,20.7,31.1,N/A,Snow,Light Snow,360,2012-10-31 01:33:00
9:53 PM,33.8,32.0,93,29.69,10.0,North,20.7,31.1,N/A,Rain,Light Rain,360,2012-10-31 01:53:00
10:14 PM,33.8,32.0,93,29.69,10.0,North,23.0,33.4,N/A,,Overcast,360,2012-10-31 02:14:00
10:53 PM,33.8,32.0,93,29.68,10.0,North,15.0,31.1,N/A,,Overcast,360,2012-10-31 02:53:00
11:14 PM,33.6,32.0,94,29.68,4.0,North,17.3,32.2,N/A,Rain,Light Rain,360,2012-10-31 03:14:00
11:33 PM,33.8,32.0,93,29.68,10.0,North,18.4,29.9,N/A,,Overcast,360,2012-10-31 03:33:00
11:53 PM,33.8,31.8,92,29.68,10.0,North,15.0,28.8,N/A,,Overcast,360,2012-10-31 03:53:00